Погода в Мураховке

Украина / Николаевская область     47°14′53″N   33°01′16″E
темп.,
°C
ветер,
м/с
пор.,
м/с
влажн.,
%
обл.,
%
осадки,
мм/ч
давл.,
гПа
погр.,
м
17 июня, чт
чт1700:00+18ссз346395 0.0 101248
03:00+16с4972100 0.0 1011150
06:00+16ссв4991100 0.8 1011258
09:00+18с8179598 11.1 1010782
12:00+20св91487100 0.5 1010953
15:00+23св101373100 1.8 10101366
18:00+22всв91483100 2.6 10111033
21:00+20всв71391100 3.9 1012650
18 июня, пт
пт1800:00+18всв51193100 0.1 1013494
03:00+16св4995100 0.1 1013242
06:00+17в713905 0.0 1013529
09:00+21в9127323 0.0 10141203
12:00+24в10126026 0.5 10151751
15:00+24вюв9126191 1.1 10151531
18:00+23вюв7116897 0.8 10151267
21:00+19вюв4107982 1.8 1017320
19 июня, сб
сб1900:00+18св478796 0.2 1017156
03:00+17всв4118695 0.2 1016291
06:00+18всв5109187 0.3 1017374
09:00+22всв56735 0.3 1017677
12:00+25всв56580 0.0 10161222
15:00+27всв67530 0.0 10151366
18:00+27всв56598 0.0 10141242
21:00+23в6127671 0.2 1014361
20 июня, вс
вс2000:00+21св41183100 0.1 1014296
03:00+20всв61386100 0.3 1014418
06:00+19св71484100 0.9 1013457
09:00+21всв71171100 1.9 1013736
12:00+24в7857100 0.1 10131115
15:00+27в7851100 0.1 10121540
18:00+27в575743 0.0 10111606
21:00+21в46714 0.0 1012112
21 июня, пн
пн2100:00+20всв23801 0.0 101129
03:00+19св2289100 0.0 101122
06:00+19св359299 0.0 1011124
09:00+24св3470100 0.0 1011413
12:00+27ссв4458100 0.0 1010786
15:00+29всв455660 0.0 10101253
18:00+28всв6858100 0.0 1010766
21:00+22всв4771100 0.0 1010115